Hourly Data Report for October 03, 2017

All times are specified in Local Standard Time (LST). Add 1 hour to adjust for Daylight Saving Time where and when it is observed.

KUGLUKTUK A
NUNAVUT

67°49'00.000" N
115°08'38.000" W
22.60 m
2300903
71938
YCO

Download Data

Hourly Data (October 2017)
Hourly Data Report for October 3, 2017
Temp Definition
°C
Dew Point Temp Definition
°C
Rel Hum Definition
%
Wind Dir Definition
10's deg

Wind Spd Definition
km/h
Visibility Definition
km
Stn Press Definition
kPa
Hmdx Definition


Wind Chill Definition


Weather Definition


TIME
00:00 Legend Double Dagger -1.5 -3.9 84 25 16 24.1 101.87   -6 Snow Grains
01:00 Legend Double Dagger -1.6 -3.8 85 26 15 24.1 101.79   -6 Snow Grains
02:00 Legend Double Dagger -1.1 -4.8 76 30 10 24.1 101.73   -5 Cloudy
03:00 Legend Double Dagger -1.2 -5.1 75 30 11 24.1 101.70   -5 LegendNANA
04:00 Legend Double Dagger -1.5 -5.4 75 29 11 24.1 101.68   -5 LegendNANA
05:00 Legend Double Dagger -1.7 -4.9 79 26 10 24.1 101.69   -5 Snow Grains
06:00 Legend Double Dagger -1.8 -4.3 84 26 12 24.1 101.66   -6 Snow Grains
07:00 Legend Double Dagger -2.3 -3.7 91 27 12 24.1 101.61   -7 Snow Grains
08:00 Legend Double Dagger -2.2 -3.7 89 27 14 24.1 101.60   -7 Mostly Cloudy
09:00 Legend Double Dagger -1.4 -5.7 73 33 8 24.1 101.61   -4 LegendNANA
10:00 Legend Double Dagger -1.3 -4.9 76 35 21 19.3 101.62   -7 LegendNANA
11:00 Legend Double Dagger -1.1 -5.6 71 34 16 19.3 101.63   -6 Mostly Cloudy
12:00 Legend Double Dagger -1.0 -5.5 72 35 21 24.1 101.63   -7 LegendNANA
13:00 Legend Double Dagger -1.0 -5.6 71 35 17 24.1 101.66   -6 LegendNANA
14:00 Legend Double Dagger -0.9 -4.8 75 30 17 24.1 101.69   -6 Freezing Drizzle
15:00 Legend Double Dagger -1.2 -2.9 88 31 19 12.9 101.70   -7 Freezing Drizzle,Snow Grains
16:00 Legend Double Dagger -0.9 -4.3 78 29 17 19.3 101.73   -6 Freezing Drizzle
17:00 Legend Double Dagger -0.8 -4.4 77 32 27 16.1 101.78   -7 Mostly Cloudy
18:00 Legend Double Dagger -1.1 -4.5 78 34 29 19.3 101.81   -8 Snow Grains
19:00 Legend Double Dagger -1.2 -4.5 79 33 27 19.3 101.84   -8 Snow Grains
20:00 Legend Double Dagger -1.4 -5.3 75 32 22 19.3 101.88   -7 Snow Grains
21:00 Legend Double Dagger -1.6 -5.6 74 31 25 19.3 101.92   -8 Snow Grains
22:00 Legend Double Dagger -2.0 -5.3 78 30 23 19.3 101.92   -8 Snow Grains
23:00 Legend Double Dagger -2.1 -5.8 76 31 21 19.3 101.93   -8 Snow Grains

Notes on Data Quality.

Legend

  • E = Estimated
  • M = Missing
  • NA = Not Available
  • ‡ = Partner data that is not subject to review by the National Climate Archives
Date modified: